Boisbriand, Quebec

2:06 AM EDT on September 26, 2017 (GMT -0400)
Sainte Therese | | Change Station

Elev 10 ft 45.64 °N, 73.82 °W | Updated 19 seconds ago

Partly Cloudy
Partly Cloudy
68.1 °F
Feels Like 68.1 °F
N
0.0
Wind Variable Wind from SW

Today
High -- | Low -- °F
--% Chance of Precip.
Yesterday
High -- | Low -- °F
Precip. -- in
Pressure 30.00 in
Visibility 25.0 miles
Clouds Scattered Clouds 25000 ft
Dew Point 63 °F
Humidity 86%
Rainfall 0.00 in
Snow Depth Not available.
6:47 AM 6:44 PM
Waxing Crescent, 33% visible
METAR CYMX 260600Z 21002KT 25SM SCT250 18/18 A2999 RMK CI4 SLP158 DENSITY ALT 700FT
Pressure 30.00 in
Visibility 25.0 miles
Clouds Scattered Clouds 25000 ft
Dew Point 63 °F
Humidity 86%
Rainfall 0.00 in
Snow Depth Not available.
6:47 AM 6:44 PM
Waxing Crescent, 33% visible
METAR CYMX 260600Z 21002KT 25SM SCT250 18/18 A2999 RMK CI4 SLP158 DENSITY ALT 700FT

Get Severe Weather Alerts

Thanks for signing up!

Be on the lookout for a verification email in your inbox.

You'll start receiving the daily forecast at 6 AM.

×

10-Day Weather Forecast

Almanac

Astronomy

Sep. 26, 2017 Rise Set
Actual Time
Civil Twilight
Nautical Twilight
Astronomical Twilight
Moon
Length of Visible Light
Length of Day
Tomorrow will be .
, % of the Moon is Illuminated

Today's Extremes

Country Highs Country Lows

Community

WunderPhotos

Category 6

Welcome to Category 6. This is the collective home for Weather Underground's featured writeups by Dr. Jeff Masters (right), Bob Henson (left), Chris Burt, and other regular contributors.

Nearby

Air Quality

  Air Quality AQ Index Pollutant
Not available.

Snow Depth

Station Depth Elevation

Earthquake Activity

City Distance Mag. Time & Date
Minimum magnitude displayed is 2.5.

Coastal Water Temperatures

Place Temperature

Stations

Nearby Weather Stations

Station Location Temp. Windchill Dew Point Humidity Wind Precip. Elev Updated Type
                   

Watches & Warnings

There are currently no watches in effect.